Flag for Germany Weather past 2 weeks in Kerpen, North Rhine-Westphalia, Germany

Now
79 °F

Passing clouds.


Feels Like: 80 °F
Forecast: 69 / 92 °F
Wind: 8 mph from West

Location: Noervenich

Current Time: Jul 5, 2015 at 12:52:57 AM

Latest Report: Jul 5, 2015 at 12:20 AM


Visibility: N/A

Pressure: 30.12 "Hg

Humidity: 54%

Dew point: 61 °F

Location of KerpenLocation

Historic Weather in Kerpen — Graph

°F

Kerpen temperature yesterday

Maximum temperature yesterday: 97 °F (at 4:20 PM)
Minimum temperature yesterday: 72 °F (at 2:20 AM)
Average temperature yesterday: 85 °F

Past Weeks' High & Low Weather Summary

 TemperatureHumidityPressure
High99 °F (Jul 2, 4:20 PM)100% (Jun 22, 11:20 PM)30.24 "Hg (Jun 22, 11:20 PM)
Low48 °F (Jun 22, 11:20 PM)25% (Jun 30, 6:20 PM)29.68 "Hg (Jun 22, 8:20 PM)
Average68 °F65%30.08 "Hg
* Reported Jun 19 11:20 PM — Jul 4 11:20 PM, Kerpen, Weather by CustomWeather, © 2015

Note: Actual official high and low records may vary slightly from our data, if they occured in-between our weather recording intervals... More about our weather records

Advertising

Kerpen weather history for previous 24 hours

 ConditionsComfort  
Time TempWeatherWind HumidityBarometerVisibility
11:20 PM
Sat, Jul 4
81 °FPartly cloudy.6 mph51%30.09 "HgN/A
10:20 PM84 °FBroken clouds.6 mph48%30.09 "HgN/A
9:20 PM88 °FBroken clouds.2 mph43%30.07 "HgN/A
8:20 PM90 °FPartly sunny.2 mph49%30.07 "HgN/A
7:20 PM93 °FPartly sunny.2 mph36%30.07 "HgN/A
6:20 PM93 °FPassing clouds.7 mph36%30.07 "HgN/A
5:20 PM95 °FScattered clouds.8 mph34%30.09 "HgN/A
4:20 PM97 °FPassing clouds.6 mph32%30.09 "HgN/A
3:20 PM95 °FPassing clouds.10 mph32%30.09 "HgN/A
2:20 PM95 °FScattered clouds.8 mph32%30.07 "HgN/A
1:20 PM93 °FPartly sunny.7 mph39%30.07 "HgN/A
12:20 PM93 °FPartly sunny.7 mph41%30.07 "HgN/A
11:20 AM91 °FPartly sunny.7 mph44%30.07 "HgN/A
10:20 AM88 °FPartly sunny.2 mph52%30.07 "HgN/A
9:20 AM84 °FPartly sunny.2 mph58%30.07 "HgN/A
8:20 AM81 °FPartly sunny.3 mph66%30.07 "HgN/A
7:20 AM75 °FPartly sunny.2 mph78%30.07 "HgN/A
6:20 AM72 °FPassing clouds.2 mph88%30.07 "HgN/A
5:20 AM72 °FPassing clouds.1 mph83%30.07 "HgN/A
4:20 AM73 °FPassing clouds.1 mph83%30.09 "HgN/A
3:20 AM73 °FPassing clouds.2 mph83%30.09 "HgN/A
2:20 AM72 °FPassing clouds.No wind88%30.12 "HgN/A
1:20 AM75 °FPassing clouds.No wind78%30.12 "HgN/A
12:20 AM77 °FPassing clouds.No wind74%30.15 "HgN/A
Weather by CustomWeather, © 2015

See weather overviewHow to use our weather pages